Location: Oberkirch
(48.5323°N, 8.0787°E)
Time: 17:11:20
(UTC+00:00)

SR - Pass Details

Date: 20 February 2026
Orbit: 572 x 848 km, 66.7° (Epoch: 8 March)

Event Time Altitude Azimuth Distance (km) Brightness Sun altitude
Exits shadow 02:50:54 17° 72° (ENE) 1,521 ? -35.6°
Drops below altitude 10° 02:52:24 10° 57° (ENE) 1,971 ? -35.4°
Sets 02:55:02 0° 44° (NE) 2,922 ? -35.0°
